NOAA 16 DEB, 42365

Orbit data source: Space-Track

NOAA 16 DEB, 42365 is space debris in SSO originally from a launch on Thu, 21 Sep 2000 UTC launched from the Air Force Western Test Range (AFWTR). Debris objects in space refer to the collection of defunct objects orbiting the Earth. Examples of debris include non-operational satellites, rocket bodies, and fragments generated from explosions, collisions, or faulty payload assembly.

Loading next visibility...
Identifier
42365, 2000-055RH
Orbit
SSO
Country
Flag of USUS
Related business
Manufacturer
Unknown
Mission
Spacecraft
Bus & Motor
Unknown
Mass
Unknown
Launch date (UTC)
2000-09-21 (25 years ago)
Launch vehicle
Unknown
Launch site
Air Force Western Test Range (AFWTR)
Object type
Payload
Rocket body
Debris
Shape & HBR
Unknown shape, 0.1 m
Radar Cross Section
Small (<0.1 m²)

Expand to show TLE details & history
Last TLE update: 17 hours ago

TLE from 17 hours ago
0 NOAA 16 DEB
1 42365U 00055RH  25287.80080845  .00008158  00000-0  21558-2 0  9992
2 42365  98.9869 117.5810 0038751 136.4186 224.0078 14.48688767503120
Epoch: 2025-10-14T19:13Z
TLE epoch observation values (Epoch: 2025-10-14T19:13:09.850Z)
Latitude
0.00002°
Longitude
165.70592°
Altitude
752.746 km
Speed
7.468 km/s
True Right ascension
07h 50m 19s
True Declination
0° 00' 00"
Sunlit
Object was in daylight at epoch
Visualization orbit readout
Latitude
Unknown
Longitude
Unknown
Altitude
Unknown
Speed
Unknown
Apparent Right ascension
Unknown
Apparent Declination
Unknown
Sunlit
N/A
Visualization observer readout
Local Sidereal Time
06:21:46
Azimuth
Unknown
Elevation
Unknown
Doppler factor
Unknown
Orbital elements
Apogee altitude
754.602 km
Perigee altitude
699.535 km
Semi-major axis
7,105.205 km
Eccentricity
0.00388
Inclination
98.9869°
RAAN
117.581°
Arg. of periapsis
136.4186°
True anomaly
223.70036°
Mean anomaly
224.0078°
Eccentric anomaly
223.85397°
Mean motion
3.62392 °/min
Orbital period
99.34 mins
BSTAR
0.0021558
Loading maneuver chart data...
Computing Atmospheric mass density...

Documentation

Showing up to 5 results
|